Weather History for Chillicothe, MO

Change the Weather History Date:

Sunday, May 5, 2013

  Actual Average (KIRK) Record (KIRK)
Temperature  
Mean Temperature 55 °F 58 °F  
Max Temperature 64 °F 69 °F 88 °F (1943)
Min Temperature 46 °F 48 °F 32 °F (1944)
Degree Days  
Heating Degree Days 10 8  
Month to date heating degree days 41  
Since 1 July heating degree days 5731  
Cooling Degree Days 0 1  
Month to date cooling degree days 4  
Year to date cooling degree days 11  
Growing Degree Days 5 (Base 50)    
Moisture  
Dew Point 49 °F    
Average Humidity 82    
Maximum Humidity 97    
Minimum Humidity 63    
Precipitation  
Precipitation 0.00 in 0.18 in 1.47 in (1991)
Month to date precipitation 0.94  
Year to date precipitation 10.13  
Sea Level Pressure  
Sea Level Pressure 30.07 in    
Wind  
Wind Speed 6 mph (NNW)    
Max Wind Speed 14 mph    
Max Gust Speed 20 mph    
T = Trace of Precipitation, MM = Missing Value Source: NWS Daily Summary

Daily Weather History Graph

Daily Weather History Graph

Search for Another Location

Airport:

Trip Planner

Search our weather history database for the weather conditions in past years. The results will help you decide how hot, cold, wet, or windy it might be!

Date:

Astronomy

May. 05, 2013 Rise Set
Actual Time 6:09 AM CDT 8:12 PM CDT
Civil Twilight 5:40 AM CDT 8:42 PM CDT
Nautical Twilight 5:03 AM CDT 9:19 PM CDT
Astronomical Twilight 4:24 AM CDT 9:58 PM CDT
Moon 3:40 AM CDT (5/5) 4:13 PM CDT (5/5)
Length of Visible Light 15h 02m
Length of Day
14h 03m
Waning Crescent, 18% of the Moon is Illuminated
May 5
Waning Crescent
May 9
New
May 17
First Quarter
May 24
Full
May 31
Last Quarter

Hourly Weather History & Observations

Time (CDT) Temp. Dew Point Humidity Pressure Visibility Wind Dir Wind Speed Gust Speed Precip Events Conditions
12:52 AM 51.1 °F 48.9 °F 92% 30.05 in - North 4.6 mph - N/A   Unknown
1:52 AM 51.1 °F 48.0 °F 89% 30.04 in - North 4.6 mph - N/A   Unknown
2:52 AM 48.9 °F 46.0 °F 90% 30.04 in - North 6.9 mph - N/A   Unknown
3:52 AM 48.9 °F 46.0 °F 90% 30.05 in - North 6.9 mph - N/A   Unknown
4:52 AM 48.0 °F 46.0 °F 93% 30.06 in - North 5.8 mph - N/A   Unknown
5:52 AM 48.0 °F 46.0 °F 93% 30.07 in - North 3.5 mph - N/A   Unknown
6:52 AM 46.9 °F 46.0 °F 97% 30.09 in - NNW 4.6 mph - N/A   Unknown
7:52 AM 48.0 °F 46.0 °F 93% 30.10 in - North 4.6 mph - N/A   Unknown
8:52 AM 48.0 °F 46.0 °F 93% 30.11 in - North 5.8 mph - N/A   Unknown
9:52 AM 48.9 °F 46.9 °F 93% 30.12 in - North 6.9 mph - N/A   Unknown
10:52 AM 48.9 °F 46.9 °F 93% 30.13 in - Variable 6.9 mph - N/A   Unknown
11:52 AM 53.1 °F 46.9 °F 80% 30.12 in - North 4.6 mph - N/A   Unknown
12:52 PM 57.0 °F 50.0 °F 77% 30.09 in - Variable 5.8 mph - N/A   Unknown
1:52 PM 60.1 °F 50.0 °F 69% 30.06 in - WNW 10.4 mph - N/A   Unknown
2:52 PM 63.0 °F 51.1 °F 65% 30.05 in - NW 12.7 mph 18.4 mph N/A   Unknown
3:52 PM 63.0 °F 52.0 °F 67% 30.04 in - NW 11.5 mph 19.6 mph N/A   Unknown
4:52 PM 64.0 °F 52.0 °F 65% 30.04 in - NW 13.8 mph 18.4 mph N/A   Unknown
5:52 PM 64.9 °F 52.0 °F 63% 30.03 in - NW 10.4 mph 18.4 mph N/A   Unknown
6:52 PM 62.1 °F 52.0 °F 70% 30.03 in - NW 8.1 mph 18.4 mph N/A   Unknown
7:52 PM 57.9 °F 51.1 °F 78% 30.05 in - NW 6.9 mph - N/A   Unknown
8:52 PM 55.9 °F 50.0 °F 80% 30.05 in - NW 8.1 mph - N/A   Unknown
9:52 PM 55.0 °F 50.0 °F 83% 30.06 in - NW 8.1 mph - N/A   Unknown
10:52 PM 54.0 °F 48.9 °F 83% 30.06 in - NNW 6.9 mph - N/A   Unknown
11:52 PM 55.0 °F 50.0 °F 83% 30.06 in - NNW 6.9 mph - N/A   Unknown